MDT,Max TemperatureF,Mean TemperatureF,Min TemperatureF,Max Dew PointF,MeanDew PointF,Min DewpointF,Max Humidity, Mean Humidity, Min Humidity, Max Sea Level PressureIn, Mean Sea Level PressureIn, Min Sea Level PressureIn, Max VisibilityMiles, Mean VisibilityMiles, Min VisibilityMiles, Max Wind SpeedMPH, Mean Wind SpeedMPH, Max Gust SpeedMPH,PrecipitationIn, CloudCover, Events, WindDirDegrees
2013-3-1,59,47,35,32,30,27,64,50,36,30.23,30.18,30.12,10,10,10,33,22,39,0.00,1,,218
2013-3-2,62,51,39,30,28,23,60,42,23,30.17,30.03,29.83,10,10,10,37,20,44,0.00,0,,222
2013-3-3,48,35,21,30,19,7,88,55,22,30.19,29.87,29.65,10,5,0,41,25,53,0.01,6,Fog-Snow,300
2013-3-4,27,21,15,18,15,7,84,71,57,30.48,30.29,30.07,10,5,1,24,9,29,0.03,7,Snow,323
2013-3-5,30,20,9,18,12,3,76,67,58,30.40,30.26,30.14,10,10,10,14,7,16,0.00,2,,83
2013-3-6,31,25,19,22,19,16,91,80,69,30.12,29.91,29.70,10,9,3,15,4,18,T,4,,56
2013-3-7,50,36,22,25,21,16,84,57,29,30.16,30.00,29.80,10,9,2,24,8,31,0.00,5,,253
2013-3-8,43,31,19,27,20,16,92,68,43,30.11,30.04,29.92,10,5,0,13,5,15,0.00,2,Fog,73
2013-3-9,48,33,18,23,18,14,84,56,28,30.32,30.22,30.08,10,10,10,18,9,30,0.00,0,,252
2013-3-10,53,40,27,24,20,17,69,49,28,30.26,30.15,29.99,10,10,10,28,16,32,0.00,2,,223
2013-3-11,37,30,22,25,21,18,85,72,58,30.44,30.23,29.99,10,6,0,18,7,22,0.07,7,Snow,14
2013-3-12,51,36,20,33,23,14,88,67,46,30.42,30.20,30.02,10,10,9,26,12,32,0.00,4,,207
2013-3-13,63,55,46,32,30,27,58,42,25,30.09,30.02,29.97,10,10,10,35,22,43,0.00,0,,221
2013-3-14,68,48,27,30,28,24,85,56,26,30.09,30.03,29.94,10,9,6,29,15,37,0.00,0,,207
2013-3-15,63,43,23,29,25,18,92,58,23,30.14,30.00,29.89,10,10,6,32,15,43,T,3,Rain,37
2013-3-16,55,39,22,28,22,18,92,61,30,30.14,29.94,29.64,10,8,1,23,7,28,0.00,6,,85
2013-3-17,42,27,12,26,13,5,84,60,35,30.15,29.81,29.48,10,8,1,32,13,39,T,7,Snow,307
2013-3-18,43,29,14,18,11,7,74,48,22,30.12,29.99,29.89,10,10,10,38,16,46,0.00,2,,239
2013-3-19,45,29,13,20,12,2,92,56,19,30.37,30.22,30.07,10,8,1,17,7,21,0.01,4,Snow,220
2013-3-20,61,49,36,37,21,8,85,54,23,30.04,29.67,29.46,10,10,5,36,19,43,0.02,3,Rain,204
2013-3-21,45,37,29,26,13,6,64,42,20,29.96,29.76,29.56,10,10,10,35,20,44,T,3,,244
2013-3-22,31,20,9,23,17,3,84,70,55,30.39,30.04,29.87,10,3,0,22,11,26,0.10,7,Snow,335
2013-3-23,35,20,4,14,7,-1,83,58,32,30.45,30.42,30.37,10,10,10,15,9,20,0.00,2,,219
2013-3-24,38,23,8,12,8,4,83,55,27,30.46,30.39,30.19,10,10,10,9,4,15,0.00,0,,124
2013-3-25,50,35,20,13,10,7,57,37,16,30.28,30.16,30.06,10,10,10,17,9,22,0.00,0,,189
2013-3-26,54,37,20,17,15,11,68,44,20,30.09,30.03,29.98,10,10,10,10,5,13,0.00,1,,187
2013-3-27,60,41,21,23,20,15,74,47,19,30.06,30.01,29.97,10,10,10,15,6,23,0.00,3,,255
2013-3-28,62,47,31,35,29,22,75,52,29,30.08,30.04,29.98,10,10,10,22,6,28,T,4,Rain,239
2013-3-29,61,47,32,34,28,20,82,52,22,30.17,30.09,30.04,10,10,10,22,12,30,0.00,3,,261
2013-3-30,61,46,31,30,24,20,70,45,20,30.23,30.16,30.06,10,10,10,20,10,26,0.00,2,,240
2013-3-31,57,46,34,27,24,20,64,46,28,30.20,30.13,30.02,10,10,10,21,10,25,0.00,2,,49